INTELSAT 34 (IS-34)

Last updated on Oct. 30, 2020, 5:57 a.m. UTC

1 40874U 15039A   20303.70579306 -.00000284  00000-0  00000-0 0  9991
2 40874   0.0213 264.0002 0000373 187.3624 145.7268  1.00269914 18991
UTC
Height (km)
Latitude
Longitude
Inclination
Orbital Period
UTC large
Height (km)
Speed (km/s)
/
Latitude / Longitude
Inclination (degrees)
Orbital Period (minutes)
Azimuth
Elevation
Range (km)
Doppler Factor
iOS Compass Heading
iOS Angle

Next 30 passes for location: Hong Kong

Rise time Rise Azimuth (degrees) Set time Set Azimuth (degrees) Duration Max altitude (degrees)

No matching passes for this satellites